Hourly Weather Roundup
Issued by NWS Central Illinois

Home | Current Version | Previous Version | Text Only | Print | Product List | Glossary On
Versions: 1 2 3 4 5 6 7 8 9 10 11 12 13 14 15 16 17 18 19 20 21 22 23 24 25 26 27 28 29 30 31 32 33 34 35 36 37 38 39 40 41 42 43 44 45 46 47 48 49 50
000
NZUS43 KILX 252310
HWRILX

Area Weather Roundup
National Weather Service Lincoln IL
600 PM CDT THU MAY 25 2017

NOTE:  "FAIR" indicates few or no clouds below 12,000 feet, with
       no sigificant weather and/or obstructions to visibility.


CITY           SKY/WX    TMP DP  RH WIND       PRES   REMARKS
Bloomington    SUNNY     67  56  67 NW6       29.71S
Champaign      SUNNY     67  55  65 NW13      29.71R
Danville       CLOUDY    62  55  76 NW9       29.68S
Decatur        MOSUNNY   71  53  52 NW8       29.70R
Effingham      MOSUNNY   72  57  58 W8        29.72S
Flora          MOSUNNY   74  54  48 W7        29.72R
Galesburg      SUNNY     70  51  51 S3        29.68S
Jacksonville   SUNNY     71  52  50 W5        29.69F
Lacon          SUNNY     66  56  69 CALM      29.70R
Lawrenceville  MOSUNNY   72  55  55 W14       29.70R
Litchfield     SUNNY     71  52  50 W5        29.71S
$$


CITY           SKY/WX    TMP DP  RH WIND       PRES   REMARKS
Lincoln        MOSUNNY   73  55  54 CALM      29.69S
Macomb         MOSUNNY   70  54  56 SW5       29.71S
Mattoon        MOSUNNY   71  59  65 NW8       29.70R
Mt Carmel AP   MOSUNNY   72  55  53 W12       29.70S
Olney-Noble AP MOSUNNY   73  54  52 W12       29.71S
Paris AP       SUNNY     66  57  71 W12G18    29.72R
Peoria         SUNNY     69  58  67 NE5       29.69S
Pontiac        MOSUNNY   66  57  74 N5        29.70S
Rantoul        MOSUNNY   65  57  73 NW7       29.71R
Robinson       MOSUNNY   69  58  69 NW7       29.71S
Springfield    MOSUNNY   73  54  51 W7        29.70R
Taylorville    SUNNY     72  53  52 W5        29.70S
$$

...REGIONAL REPORTS...


CITY           SKY/WX    TMP DP  RH WIND       PRES   REMARKS
Chicago O`Hare PTSUNNY   65  51  60 NE12      29.67R
Kankakee       PTSUNNY   68  55  62 CALM      29.68S
Moline         MOSUNNY   73  50  44 E5        29.66F
Mount Sterling MOSUNNY   71  53  53 CALM      29.69S
Mount Vernon     N/A     74  53  48 SW9       29.72R
Pittsfield     MOSUNNY   71  54  54 SW5       29.71S
Quincy         SUNNY     72  51  47 VRB6      29.69S
Rockford       MOSUNNY   71  52  50 VRB3      29.68F
$$


CITY           SKY/WX    TMP DP  RH WIND       PRES   REMARKS
Burlington     SUNNY     71  52  50 CALM      29.68S
Cedar Rapids   SUNNY     71  52  50 SW3       29.66S
Des Moines     MOSUNNY   74  49  41 S15       29.61F
Kirksville     SUNNY     72  53  51 SE9       29.67F
Ottumwa        SUNNY     72  48  42 SW7       29.65S
St Louis       MOSUNNY   77  49  37 W6        29.70F
$$


CITY           SKY/WX    TMP DP  RH WIND       PRES   REMARKS
Terre Haute    PTSUNNY   66  55  67 NW10      29.70R
Evansville     MOSUNNY   74  53  48 W12       29.71S
Indianapolis   CLOUDY    64  55  72 W18       29.67R
Lafayette      CLOUDY    63  56  78 W9        29.67R
Madison        MOSUNNY   71  53  52 NE8       29.66S
Milwaukee      MOSUNNY   61  52  72 N10       29.67S
$$






USA.gov is the U.S. government's official web portal to all federal, state and local government web resources and services.